Tracking 27122 objects as of 26-Mar-2023
HD Live streaming from Space Station
objects crossing your sky now

OKEAN O

Track OKEAN O now!
10-day predictions
OKEAN O is classified as:


NORAD ID: 25860
Int'l Code: 1999-039A
Perigee: 644.1 km
Apogee: 645.6 km
Inclination: 98.1 °
Period: 97.5 minutes
Semi major axis: 7015 km
RCS: 19.8052 m2 (large)
Launch date: July 17, 1999
Source: Commonwealth of Independent States (former USSR) (CIS)
Launch site: TYURATAM MISSILE AND SPACE COMPLEX (TTMTR)
Your satellite tracking list
Your tracking list is empty




NASA's NSSDC Master Catalog

Two Line Element Set (TLE):
1 25860U 99039A   23084.85334246  .00001653  00000-0  23996-3 0  9990
2 25860  98.1004 131.5919 0001051 114.8552 245.2767 14.77350137274797
Source of the keplerian elements: AFSPC